[[{"header":{"parameterUnit":"m.s-1","parameterCategory":1,"la1":30.2991,"la2":30.254,"lo1":-89.0895,"lo2":-89.0444,"dy":0.0017,"dx":0.0017,"nx":28,"ny":28,"refTime":"2024-10-17T03:00:00:Z","depth":0,"parameterNumber":2,"parameterNumberName":"U-component_of_WINDS"},"data":[0,0,0,0,0,0,0,0,0,0,0,0,0,0,0,0,0,0,0,0,0,0,0,0,0,0,0,0,0,0,0,0,0,0,0,0,0,0,0,0,0,0,0,0,0,0,0,0,0,0,0,0,0,0,0,0,0,0,-4.233,-4.233,0,-4.2343,-4.2343,-4.2343,-4.2244,-4.2242,-4.2239,-4.2236,-4.2252,-4.2255,-4.2258,0,0,0,0,0,0,0,0,0,0,0,0,0,-4.2224,-4.2227,-4.233,-4.233,-4.233,-4.2343,-4.2343,-4.2343,-4.2245,-4.2241,-4.2238,-4.2235,-4.2251,-4.2254,-4.2258,0,0,0,0,0,0,0,0,0,0,0,0,0,-4.2257,-4.2227,-4.233,-4.2283,-4.2279,-4.2343,-4.2343,-4.2343,-4.2246,-4.2241,-4.2237,-4.2233,-4.225,-4.2254,-4.2258,-4.2369,0,0,-4.2272,-4.2274,0,0,0,0,0,0,0,0,-4.2255,-4.2261,-4.229,-4.2286,-4.2282,-4.2288,-4.2311,-4.2352,-4.2247,-4.2258,-4.2236,-4.2231,-4.2267,-4.227,-4.2282,-4.237,-4.237,-4.2272,-4.2275,-4.2277,-4.2278,0,0,0,0,0,0,0,-4.2253,-4.226,-4.2335,-4.229,-4.2285,-4.2262,-4.2262,-4.2318,-4.2286,-4.2257,-4.225,-4.2252,-4.2264,-4.2277,-4.2281,-4.2371,-4.2272,-4.2276,-4.2279,-4.2281,-4.2553,-4.2557,0,0,0,0,0,0,-4.2257,-4.2259,-4.2335,-4.2336,-4.2258,-4.2267,-4.2267,-4.229,-4.2285,-4.228,-4.2256,-4.2248,-4.2272,-4.2276,-4.2281,-4.2412,-4.2277,-4.2281,-4.2284,-4.2548,-4.2554,-4.2559,0,0,0,0,0,0,-4.2255,-4.2265,-4.2334,-4.2295,-4.2302,-4.2274,-4.23,-4.2292,-4.2305,-4.2284,-4.2278,-4.2275,-4.2269,-4.2275,-4.2348,-4.2411,-4.2283,-4.2287,-4.2543,-4.255,-4.2556,-4.2673,0,0,0,0,0,0,-4.2252,-4.2264,-4.2305,-4.2297,-4.2305,-4.24,-4.2304,-4.2296,-4.2313,-4.2303,-4.2301,-4.2297,-4.2266,-4.2342,-4.2353,-4.2415,-4.2291,-4.2537,-4.2546,-4.2554,-4.2664,-4.2683,-4.27,0,0,0,0,0,-4.2249,-4.2338,-4.2308,-4.2318,-4.2355,-4.2404,-4.2409,-4.2371,-4.2319,-4.236,-4.2347,-4.2297,-4.2402,-4.235,-4.2362,-4.2426,-4.2533,-4.2543,-4.2553,-4.2655,-4.2679,-4.2699,0,0,0,0,0,0,-4.2355,-4.2336,-4.2302,-4.2391,-4.24,-4.2387,-4.2438,-4.2397,-4.2421,-4.2411,-4.2364,-4.2364,-4.2446,-4.2443,-4.2385,-4.2534,-4.2459,-4.2472,-4.2533,-4.2555,-4.2573,-4.2572,-4.2295,0,0,0,0,0,-4.2388,-4.2429,-4.241,-4.2491,-4.2497,-4.2467,-4.2487,-4.2457,-4.2465,-4.2468,-4.246,-4.247,-4.2506,-4.253,-4.2562,-4.2663,-4.2662,-4.2713,-4.2731,-4.2746,-4.2758,-4.2813,-4.2836,-4.2592,-4.2592,-4.2592,0,0,-4.2458,-4.2453,-4.2481,-4.2512,-4.2515,-4.2559,-4.2471,-4.2521,-4.2553,-4.2476,-4.2544,-4.254,-4.2548,-4.2636,-4.2674,-4.2636,-4.2825,-4.2759,-4.2771,-4.2775,-4.2826,-4.2849,-4.2869,-4.2599,-4.2598,-4.2597,0,0,-4.2608,-4.2608,-4.2675,-4.2681,-4.2687,-4.2667,-4.2683,-4.2677,-4.2671,-4.2739,-4.2682,-4.2721,-4.2783,-4.2792,-4.2804,-4.296,-4.2915,-4.2972,-4.3067,-4.3121,-4.314,-4.3157,-4.3214,-4.3235,-4.2984,-4.2984,-4.2984,0,-4.2695,-4.2758,-4.2715,-4.2769,-4.2785,-4.2717,-4.2786,-4.2793,-4.281,-4.2823,-4.278,-4.2858,-4.2858,-4.2948,-4.2987,-4.2999,-4.3017,-4.2972,-4.3141,-4.3157,-4.3172,-4.3226,-4.3247,-4.2991,-4.299,-4.2989,-4.2989,0,-4.2864,-4.2909,-4.2963,-4.2981,-4.3002,-4.3064,-4.3032,-4.306,-4.3029,-4.3014,-4.3086,-4.3084,-4.3115,-4.3134,-4.3104,-4.3221,-4.3197,-4.3148,-4.3072,-4.3203,-4.3253,-4.3273,-4.3001,-4.2998,-4.2996,-4.2994,0,0,-4.308,-4.3074,-4.3095,-4.3103,-4.3106,-4.314,-4.32,-4.3229,-4.3254,-4.3269,-4.3318,-4.3373,-4.3328,-4.3343,-4.3314,-4.3361,-4.3487,-4.3307,-4.3306,-4.3341,-4.3617,-4.3654,-4.3679,-4.3457,-4.3461,-4.3464,-4.3617,0,-4.3227,-4.3327,-4.3291,-4.3394,-4.3436,-4.3373,-4.3424,-4.3433,-4.3421,-4.3456,-4.3443,-4.3483,-4.342,-4.3429,-4.3473,-4.3462,-4.3542,-4.3451,-4.3504,-4.3507,-4.3504,-4.3704,-4.3744,-4.3888,-4.3636,-4.3639,-4.3641,0,-4.3411,-4.3433,-4.354,-4.3537,-4.3553,-4.3601,-4.3626,-4.366,-4.3669,-4.3657,-4.3674,-4.3636,-4.3695,-4.3619,-4.3701,-4.364,-4.366,-4.3658,-4.3663,-4.3667,-4.3582,-4.3715,-4.3932,-4.3955,-4.3671,-4.3669,-4.3667,0,-4.356,-4.3616,-4.3687,-4.3696,-4.3694,-4.3729,-4.373,-4.3734,-4.3755,-4.3778,-4.3791,-4.3821,-4.3838,-4.3862,-4.3833,-4.378,-4.3921,-4.3842,-4.3914,-4.3915,-4.3947,-4.3945,-4.4172,-4.3959,-4.3959,-4.3958,-4.3958,0,-4.3728,-4.3796,-4.3754,-4.3798,-4.3873,-4.3832,-4.3908,-4.3902,-4.3908,-4.3951,-4.3898,-4.394,-4.3899,-4.3937,-4.3915,-4.3988,-4.3996,-4.3989,-4.3982,-4.3994,-4.3995,-4.4007,-4.3996,-4.3964,-4.3963,-4.3962,-4.3961,0,-4.3905,-4.388,-4.3954,-4.3947,-4.3946,-4.4002,-4.3996,-4.4038,-4.4023,-4.4078,-4.4089,-4.4066,-4.4109,-4.4083,-4.4126,-4.4111,-4.4207,-4.4186,-4.4203,-4.4198,-4.4272,-4.4266,-4.4515,-4.4546,-4.4313,-4.4315,-4.4317,0,-4.4014,-4.4065,-4.4064,-4.4089,-4.4093,-4.4134,-4.4155,-4.4117,-4.4142,-4.4157,-4.4197,-4.4235,-4.4264,-4.4336,-4.4324,-4.4358,-4.4338,-4.4423,-4.4343,-4.4353,-4.434,-4.4338,-4.4344,-4.4439,-4.4442,-4.4444,-4.4446,0,-4.4211,-4.4196,-4.4228,-4.4257,-4.4284,-4.4304,-4.4321,-4.4344,-4.4307,-4.4338,-4.4381,-4.4403,-4.4448,-4.4487,-4.4516,-4.4518,-4.4477,-4.4471,-4.449,-4.4502,-4.4511,-4.4508,-4.4248,-4.4466,-4.4464,-4.4462,-4.4461,-4.446,-4.4358,-4.4401,-4.4407,-4.4445,-4.4454,-4.4471,-4.451,-4.45,-4.4535,-4.4568,-4.4545,-4.4596,-4.4606,-4.464,-4.4649,-4.4689,-4.4655,-4.4682,-4.4689,-4.4696,-4.4707,-4.4504,-4.4694,-4.4694,-4.4693,-4.4693,-4.4692,0,-4.4553,-4.4554,-4.4589,-4.4614,-4.4645,-4.4603,-4.4619,-4.4648,-4.4694,-4.4706,-4.4735,-4.4786,-4.4824,-4.4816,-4.4851,-4.4886,-4.4868,-4.4896,-4.4894,-4.4895,-4.4735,-4.4716,-4.4911,-4.4911,-4.491,-4.491,-4.491,-4.491,-4.4658,-4.4729,-4.4715,-4.4791,-4.4792,-4.4841,-4.4855,-4.4871,-4.488,-4.4939,-4.4971,-4.4965,-4.497,-4.5005,-4.5039,-4.5036,-4.5052,-4.5088,-4.5078,-4.4928,-4.4906,-4.4886,-4.4868,-4.5091,-4.5091,-4.5235,-4.5236,-4.5237]},{"header":{"parameterUnit":"m.s-1","parameterCategory":1,"la1":30.2991,"la2":30.254,"lo1":-89.0895,"lo2":-89.0444,"dy":0.0017,"dx":0.0017,"nx":28,"ny":28,"refTime":"2024-10-17T03:00:00:Z","depth":0,"parameterNumber":3,"parameterNumberName":"V-component_of_WINDS"},"data":[0,0,0,0,0,0,0,0,0,0,0,0,0,0,0,0,0,0,0,0,0,0,0,0,0,0,0,0,0,0,0,0,0,0,0,0,0,0,0,0,0,0,0,0,0,0,0,0,0,0,0,0,0,0,0,0,0,0,-0.9774,-0.9774,0,-0.9777,-0.9777,-0.9777,-0.9739,-0.9738,-0.9737,-0.9736,-0.9742,-0.9743,-0.9744,0,0,0,0,0,0,0,0,0,0,0,0,0,-0.9735,-0.9736,-0.9774,-0.9774,-0.9774,-0.9777,-0.9777,-0.9777,-0.974,-0.9738,-0.9737,-0.9736,-0.9741,-0.9743,-0.9744,0,0,0,0,0,0,0,0,0,0,0,0,0,-0.9747,-0.9736,-0.9774,-0.9755,-0.9754,-0.9777,-0.9777,-0.9777,-0.974,-0.9738,-0.9737,-0.9735,-0.9741,-0.9743,-0.9744,-0.9786,0,0,-0.9749,-0.975,0,0,0,0,0,0,0,0,-0.9746,-0.9748,-0.9758,-0.9757,-0.9755,-0.9756,-0.9766,-0.978,-0.974,-0.9745,-0.9736,-0.9734,-0.9748,-0.9749,-0.9753,-0.9786,-0.9787,-0.9749,-0.9751,-0.9751,-0.9752,0,0,0,0,0,0,0,-0.9745,-0.9748,-0.9775,-0.9758,-0.9756,-0.9747,-0.9747,-0.9768,-0.9755,-0.9745,-0.9742,-0.9743,-0.9747,-0.9752,-0.9753,-0.9787,-0.9749,-0.9751,-0.9752,-0.9753,-0.9855,-0.9856,0,0,0,0,0,0,-0.9747,-0.9747,-0.9775,-0.9775,-0.9746,-0.9749,-0.9749,-0.9757,-0.9755,-0.9753,-0.9744,-0.9741,-0.9749,-0.9751,-0.9753,-0.9803,-0.9751,-0.9753,-0.9754,-0.9853,-0.9855,-0.9857,0,0,0,0,0,0,-0.9746,-0.975,-0.9775,-0.9761,-0.9763,-0.9752,-0.9761,-0.9758,-0.9763,-0.9755,-0.9752,-0.9751,-0.9748,-0.9751,-0.9778,-0.9802,-0.9754,-0.9755,-0.9851,-0.9854,-0.9856,-0.9902,0,0,0,0,0,0,-0.9745,-0.975,-0.9765,-0.9761,-0.9764,-0.98,-0.9763,-0.976,-0.9766,-0.9762,-0.9761,-0.9759,-0.9747,-0.9776,-0.978,-0.9804,-0.9756,-0.9849,-0.9852,-0.9855,-0.9898,-0.9906,-0.9912,0,0,0,0,0,-0.9744,-0.9779,-0.9766,-0.977,-0.9783,-0.9801,-0.9803,-0.9788,-0.9768,-0.9784,-0.9778,-0.9759,-0.9798,-0.9779,-0.9783,-0.9808,-0.9847,-0.9851,-0.9855,-0.9895,-0.9904,-0.9912,0,0,0,0,0,0,-0.9787,-0.9778,-0.9764,-0.9798,-0.9801,-0.9795,-0.9815,-0.9798,-0.9807,-0.9803,-0.9785,-0.9785,-0.9815,-0.9814,-0.9792,-0.9848,-0.9819,-0.9824,-0.9848,-0.9857,-0.9864,-0.9864,-0.9758,0,0,0,0,0,-0.98,-0.9815,-0.9806,-0.9837,-0.9839,-0.9827,-0.9834,-0.9822,-0.9824,-0.9825,-0.9822,-0.9825,-0.9838,-0.9847,-0.9859,-0.9897,-0.9897,-0.9916,-0.9923,-0.9929,-0.9934,-0.9954,-0.9963,-0.9869,-0.9869,-0.9869,0,0,-0.9828,-0.9825,-0.9836,-0.9846,-0.9846,-0.9863,-0.9828,-0.9847,-0.9859,-0.9828,-0.9854,-0.9852,-0.9854,-0.9887,-0.9901,-0.9887,-0.9959,-0.9933,-0.9938,-0.994,-0.9959,-0.9968,-0.9976,-0.9872,-0.9872,-0.9871,0,0,-0.9888,-0.9886,-0.9912,-0.9913,-0.9914,-0.9905,-0.9911,-0.9908,-0.9905,-0.993,-0.9907,-0.9921,-0.9944,-0.9947,-0.9951,-1.001,-0.9993,-1.0014,-1.0051,-1.0072,-1.0079,-1.0085,-1.0107,-1.0115,-1.0019,-1.0019,-1.0019,0,-0.9923,-0.9946,-0.9928,-0.9948,-0.9953,-0.9925,-0.9951,-0.9953,-0.9958,-0.9963,-0.9946,-0.9973,-0.9973,-1.0007,-1.0021,-1.0025,-1.0032,-1.0015,-1.0079,-1.0085,-1.0091,-1.0112,-1.012,-1.0022,-1.0021,-1.0021,-1.0021,0,-0.9989,-1.0006,-1.0026,-1.0031,-1.0039,-1.0062,-1.0047,-1.0057,-1.0044,-1.0037,-1.0063,-1.0061,-1.0072,-1.0079,-1.0067,-1.0111,-1.0102,-1.0082,-1.0053,-1.0103,-1.0122,-1.013,-1.0025,-1.0024,-1.0024,-1.0023,0,0,-1.0078,-1.0071,-1.0079,-1.0081,-1.0079,-1.0092,-1.0113,-1.0123,-1.0132,-1.0136,-1.0154,-1.0173,-1.0155,-1.016,-1.0148,-1.0165,-1.0213,-1.0144,-1.0143,-1.0158,-1.0263,-1.0278,-1.0288,-1.0201,-1.0202,-1.0204,-1.0263,0,-1.0137,-1.0173,-1.0157,-1.0196,-1.0211,-1.0183,-1.0202,-1.0204,-1.0197,-1.021,-1.0202,-1.0217,-1.0191,-1.0194,-1.021,-1.0204,-1.0234,-1.0199,-1.0219,-1.022,-1.0221,-1.0298,-1.0315,-1.0371,-1.027,-1.0271,-1.0272,0,-1.0211,-1.0217,-1.0257,-1.0252,-1.0258,-1.0275,-1.0283,-1.0294,-1.0295,-1.0289,-1.0294,-1.0277,-1.0299,-1.0268,-1.0298,-1.0274,-1.0281,-1.0279,-1.0281,-1.0284,-1.025,-1.0304,-1.0388,-1.0397,-1.0284,-1.0283,-1.0282,0,-1.0273,-1.0291,-1.0317,-1.032,-1.0314,-1.0327,-1.0326,-1.0325,-1.0331,-1.0338,-1.0342,-1.0351,-1.0356,-1.0363,-1.035,-1.0329,-1.0381,-1.035,-1.0378,-1.0379,-1.0392,-1.0392,-1.048,-1.0394,-1.0394,-1.0393,-1.0393,0,-1.0341,-1.0367,-1.0345,-1.0362,-1.039,-1.037,-1.0399,-1.0394,-1.0393,-1.0408,-1.0385,-1.04,-1.038,-1.0393,-1.0382,-1.0409,-1.0411,-1.0407,-1.0405,-1.041,-1.0411,-1.0416,-1.0412,-1.0396,-1.0395,-1.0395,-1.0394,0,-1.0416,-1.0402,-1.0429,-1.0422,-1.042,-1.0441,-1.0435,-1.045,-1.0441,-1.0461,-1.0464,-1.0451,-1.0465,-1.0452,-1.0465,-1.0458,-1.0494,-1.0484,-1.0494,-1.0492,-1.0521,-1.0519,-1.0617,-1.0629,-1.0534,-1.0535,-1.0535,0,-1.0462,-1.0481,-1.0475,-1.0483,-1.0483,-1.0496,-1.0503,-1.0484,-1.0492,-1.0493,-1.0508,-1.052,-1.0529,-1.0552,-1.0544,-1.0555,-1.0546,-1.058,-1.0548,-1.0553,-1.0548,-1.0548,-1.055,-1.0587,-1.0588,-1.0589,-1.059,0,-1.0544,-1.0536,-1.0546,-1.0554,-1.0562,-1.0567,-1.057,-1.0578,-1.0559,-1.0569,-1.0582,-1.0589,-1.0602,-1.0615,-1.0622,-1.0621,-1.0603,-1.0599,-1.0607,-1.0614,-1.0619,-1.0618,-1.0513,-1.0598,-1.0597,-1.0596,-1.0596,-1.0596,-1.0606,-1.0622,-1.062,-1.0632,-1.0632,-1.0636,-1.065,-1.0642,-1.0653,-1.0662,-1.065,-1.0667,-1.0667,-1.0675,-1.0675,-1.0689,-1.0675,-1.0685,-1.0688,-1.0691,-1.0696,-1.0615,-1.069,-1.069,-1.0689,-1.0689,-1.0689,0,-1.0689,-1.0686,-1.0697,-1.0702,-1.0711,-1.0691,-1.0694,-1.0703,-1.0718,-1.0719,-1.0728,-1.0744,-1.0755,-1.0747,-1.0757,-1.0769,-1.0761,-1.0773,-1.0773,-1.0773,-1.0707,-1.0701,-1.0779,-1.0779,-1.0779,-1.0779,-1.0779,-1.0779,-1.0733,-1.0758,-1.075,-1.0776,-1.0772,-1.0789,-1.0792,-1.0795,-1.0795,-1.0814,-1.0823,-1.0817,-1.0815,-1.0824,-1.0834,-1.0831,-1.0837,-1.0852,-1.0846,-1.0786,-1.0777,-1.0769,-1.0763,-1.0853,-1.0853,-1.0911,-1.0911,-1.0912]}]]